(110672) = 2001 TB195

Discovered at Palomar on 2001-10-15 by NEAT.

Orbit

Orbit type: Main Belt

Note: WebGL enabled browser required.

epoch2024-03-31.0
epoch JD2460400.5
perihelion date2023-05-05.98227
perihelion JD2460070.48227
argument of perihelion (°)132.36737
ascending node (°)157.97767
inclination (°)17.48487
eccentricity0.1677076
perihelion distance (AU)2.6478758
Tisserand w.r.t. Jupiter3.1
ΔV w.r.t. Earth (km/sec)11.5
semimajor axis (AU)3.1814249
mean anomaly (°)57.32032
mean daily motion (°/day)0.17368860
aphelion distance (AU)3.715
period (years)5.67
P-vector [x]0.36047323
P-vector [y]-0.91951220
P-vector [z]-0.15670469
Q-vector [x]0.92594095
Q-vector [y]0.37303950
Q-vector [z]-0.05894816
absolute magnitude14.94
phase slope0.15
uncertainty0
referenceMPEC 2024-E02
observations used735
oppositions18
arc length (days)10326
first opposition used1995
last opposition used2023
residual rms (arc-secs)0.73
perturbers coarse indicatorM-v
perturbers precise indicator003Ek
first observation date used1995-08-29.0
last observation date used2023-12-06.0
computer nameMPCLINUX
JD of orbit computation2456671.020692
perihelion JD uncertainty (days)1.2627E-04
argument of perihelion uncertainty (°)3.2295E-05
ascending node uncertainty (°)2.2790E-05
inclination uncertainty (°)6.3443E-06
eccentricity uncertainty 5.2287E-08
perihelion distance uncertainty (AU)1.7393E-07
Minimum Orbit Intersection Distances (in AU)
for orbit epoch: 2460400.5, reference: E2024-E02
Mercury2.2261
Venus1.95036
Earth1.66569
Mars1.31686
Jupiter1.76565
Saturn5.50865
Uranus14.9022
Neptune26.4713

Observations

754 total observations over interval: 1995 08 29.29965 – 2023 12 06.231304
These data are available for download (format description).

Date (UT) J2000 RA J2000 Dec Magn Location Ref
1995 08 29.29965 23 46 26.82 -06 19 49.9 19.7 V 809 – European Southern Observatory, La Silla MPS 57203
1995 08 30.30000 23 45 53.90 -06 30 23.8 19.4 V 809 – European Southern Observatory, La Silla MPS 57203
1995 08 31.29444 23 45 20.47 -06 40 57.9 20.1 V 809 – European Southern Observatory, La Silla MPS 57203
2000 06 01.29760 18 38 54.52 +01 58 07.9 18.5   704 – Lincoln Laboratory ETS, New Mexico MPS 129975
2000 06 01.31100 18 38 54.13 +01 58 12.1 19.0   704 – Lincoln Laboratory ETS, New Mexico MPS 129975
2000 06 01.32432 18 38 53.73 +01 58 13.5 18.7   704 – Lincoln Laboratory ETS, New Mexico MPS 129975
2000 06 01.33763 18 38 53.34 +01 58 15.3 18.7   704 – Lincoln Laboratory ETS, New Mexico MPS 129975
2000 06 01.35094 18 38 52.99 +01 58 17.3 18.4   704 – Lincoln Laboratory ETS, New Mexico MPS 129975
2000 07 06.23639 18 15 22.50 +01 04 41.8 18.1   704 – Lincoln Laboratory ETS, New Mexico MPS 129975
2000 07 06.26284 18 15 21.39 +01 04 34.8 17.9   704 – Lincoln Laboratory ETS, New Mexico MPS 129975
2000 07 06.27590 18 15 20.78 +01 04 30.9 18.4   704 – Lincoln Laboratory ETS, New Mexico MPS 129975
2000 07 06.28942 18 15 20.25 +01 04 25.3 17.9   704 – Lincoln Laboratory ETS, New Mexico MPS 129975
2001 09 12.40758 02 02 38.34 -03 25 56.2 19.3   704 – Lincoln Laboratory ETS, New Mexico MPS 54627
2001 09 12.45017 02 02 37.65 -03 26 19.5 19.9   704 – Lincoln Laboratory ETS, New Mexico MPS 54627
2001 09 12.46438 02 02 37.28 -03 26 26.9 19.9   704 – Lincoln Laboratory ETS, New Mexico MPS 54627
2001 10 11.26781 01 47 26.87 -07 41 10.2 19.3   704 – Lincoln Laboratory ETS, New Mexico MPS 54627
2001 10 11.28426 01 47 26.12 -07 41 17.2 19.1   704 – Lincoln Laboratory ETS, New Mexico MPS 54627
2001 10 11.30045 01 47 25.38 -07 41 24.9 19.5   704 – Lincoln Laboratory ETS, New Mexico MPS 54627
2001 10 11.31667 01 47 24.72 -07 41 33.1 19.4   704 – Lincoln Laboratory ETS, New Mexico MPS 54627
2001 10 15.31996 01 44 36.28 -08 12 05.0 19.6   644 – Palomar Mountain/NEAT MPS 40991
2001 10 15.33044 01 44 35.82 -08 12 09.5 19.6   644 – Palomar Mountain/NEAT MPS 40991
2001 10 15.34112 01 44 35.32 -08 12 14.0 20.0   644 – Palomar Mountain/NEAT MPS 40991
2001 10 15.37851 01 44 33.64 -08 12 29.6 19.8   644 – Palomar Mountain/NEAT MPS 40991
2001 10 15.38893 01 44 33.18 -08 12 34.2 19.6   644 – Palomar Mountain/NEAT MPS 40991
2001 10 15.39952 01 44 32.72 -08 12 38.7 19.8   644 – Palomar Mountain/NEAT MPS 40991
2001 10 15.40889 01 44 32.33 -08 12 43.6 19.4   644 – Palomar Mountain/NEAT MPS 40991
2001 10 15.41955 01 44 31.88 -08 12 48.4 19.2   644 – Palomar Mountain/NEAT MPS 40991
2001 10 15.43025 01 44 31.42 -08 12 53.0 19.3   644 – Palomar Mountain/NEAT MPS 40991
2001 10 15.47537 01 44 29.55 -08 13 12.1 20.1   608 – Haleakala-AMOS MPS 40991
2001 10 15.48620 01 44 29.08 -08 13 16.6 20.2   608 – Haleakala-AMOS MPS 40991
2001 10 15.49740 01 44 28.58 -08 13 21.2 20.2   608 – Haleakala-AMOS MPS 40991
2001 10 22.34918 01 39 37.64 -08 59 30.0 21.1   644 – Palomar Mountain/NEAT MPS 40991
2001 10 22.36977 01 39 36.72 -08 59 37.6 20.2   644 – Palomar Mountain/NEAT MPS 40991
2001 10 22.39037 01 39 35.83 -08 59 44.4 20.5   644 – Palomar Mountain/NEAT MPS 40991
2001 10 28.19697 01 35 37.04 -09 31 59.8 19.2 R 644 – Palomar Mountain/NEAT MPS 143666
2001 10 28.23817 01 35 35.42 -09 32 11.8 19.7 R 644 – Palomar Mountain/NEAT MPS 143666
2005 03 10.41537 14 09 16.32 +03 08 19.9 19.0 R 703 – Catalina Sky Survey MPS 128984
2005 03 10.42527 14 09 16.20 +03 08 25.0 19.1 R 703 – Catalina Sky Survey MPS 128984
2005 03 10.43516 14 09 16.08 +03 08 30.2 18.2 R 703 – Catalina Sky Survey MPS 128984
2005 03 10.44503 14 09 15.97 +03 08 34.2 19.1 R 703 – Catalina Sky Survey MPS 128984
2005 03 17.42836 14 07 37.63 +04 11 21.5 18.6 R 703 – Catalina Sky Survey MPS 128984
2005 03 17.43692 14 07 37.47 +04 11 27.6 19.4 R 703 – Catalina Sky Survey MPS 128984
2005 03 17.44543 14 07 37.38 +04 11 31.3 18.5 R 703 – Catalina Sky Survey MPS 128984
2005 03 17.45397 14 07 37.15 +04 11 36.7 18.7 R 703 – Catalina Sky Survey MPS 128984
2005 04 06.29205 13 58 08.36 +07 17 12.9 18.4 R 703 – Catalina Sky Survey MPS 130666
2005 04 06.30010 13 58 08.11 +07 17 17.9 18.7 R 703 – Catalina Sky Survey MPS 130666
2005 04 06.30822 13 58 07.82 +07 17 23.1 18.6 R 703 – Catalina Sky Survey MPS 130666
2005 04 06.31637 13 58 07.50 +07 17 25.8 18.8 R 703 – Catalina Sky Survey MPS 130666
2005 04 08.38997 13 56 48.77 +07 35 56.2 19.4   704 – Lincoln Laboratory ETS, New Mexico MPS 131603
2005 04 08.39958 13 56 48.54 +07 36 02.9 19.7   704 – Lincoln Laboratory ETS, New Mexico MPS 131603
2005 04 08.41873 13 56 47.68 +07 36 13.2 19.8   704 – Lincoln Laboratory ETS, New Mexico MPS 131603
2005 04 08.42884 13 56 47.37 +07 36 18.5 20.0   704 – Lincoln Laboratory ETS, New Mexico MPS 131603
2005 04 12.21796 13 54 18.30 +08 09 00.3 18.5 R 699 – Lowell Observatory-LONEOS MPS 131603
2005 04 12.23178 13 54 17.77 +08 09 07.6   699 – Lowell Observatory-LONEOS MPS 131603
2005 04 12.24556 13 54 17.19 +08 09 15.4   699 – Lowell Observatory-LONEOS MPS 131603
2005 04 12.25938 13 54 16.66 +08 09 21.8   699 – Lowell Observatory-LONEOS MPS 131603
2005 04 16.35457 13 51 29.22 +08 42 40.0 18.9 R 703 – Catalina Sky Survey MPS 132551
2005 04 16.36118 13 51 28.94 +08 42 42.7 20.4 R 703 – Catalina Sky Survey MPS 132551
2005 04 16.36771 13 51 28.69 +08 42 44.9 18.9 R 703 – Catalina Sky Survey MPS 132551
2005 04 16.37417 13 51 28.40 +08 42 48.4 19.0 R 703 – Catalina Sky Survey MPS 132551
2005 05 12.20205 13 34 56.00 +11 01 01.6 18.8   704 – Lincoln Laboratory ETS, New Mexico MPS 133911
2005 05 12.21252 13 34 55.52 +11 01 02.8 19.5   704 – Lincoln Laboratory ETS, New Mexico MPS 133911
2005 05 12.22410 13 34 55.22 +11 01 05.3 19.5   704 – Lincoln Laboratory ETS, New Mexico MPS 133911
2005 05 12.24671 13 34 54.45 +11 01 09.5 19.6   704 – Lincoln Laboratory ETS, New Mexico MPS 133911
2006 05 06.44602 21 06 30.18 -03 01 36.4 20.6 V 691 – Steward Observatory, Kitt Peak-Spacewatch MPS 171569
2006 05 06.46098 21 06 31.07 -03 01 31.5 20.0 V 691 – Steward Observatory, Kitt Peak-Spacewatch MPS 171569
2006 05 06.47602 21 06 31.90 -03 01 27.3 20.4 V 691 – Steward Observatory, Kitt Peak-Spacewatch MPS 171569
2006 05 09.42987 21 09 20.41 -02 46 57.1 19.7 V G96 – Mt. Lemmon Survey MPS 171569
2006 05 09.43476 21 09 20.70 -02 46 55.3 19.6 V G96 – Mt. Lemmon Survey MPS 171569
2006 05 09.43962 21 09 20.95 -02 46 53.9 19.5 V G96 – Mt. Lemmon Survey MPS 171569
2006 05 09.44437 21 09 21.20 -02 46 52.7 19.6 V G96 – Mt. Lemmon Survey MPS 171569
2006 05 10.42807 21 10 15.52 -02 42 10.6 19.5 V G96 – Mt. Lemmon Survey MPS 171569
2006 05 10.43566 21 10 15.96 -02 42 08.0 19.8 V G96 – Mt. Lemmon Survey MPS 171569
2006 05 10.44335 21 10 16.35 -02 42 05.7 19.8 V G96 – Mt. Lemmon Survey MPS 171569
2006 05 10.45107 21 10 16.78 -02 42 03.7 20.0 V G96 – Mt. Lemmon Survey MPS 171569
2006 05 11.43456 21 11 10.17 -02 37 25.6 19.5 V G96 – Mt. Lemmon Survey MPS 171569
2006 05 11.44262 21 11 10.60 -02 37 23.7 18.7 V G96 – Mt. Lemmon Survey MPS 171569
2006 05 11.45060 21 11 11.04 -02 37 21.1 19.8 V G96 – Mt. Lemmon Survey MPS 171569
2006 05 11.45869 21 11 11.43 -02 37 18.6 19.7 V G96 – Mt. Lemmon Survey MPS 171569
2006 07 21.30088 21 25 20.42 -02 52 20.4 19.0 V 703 – Catalina Sky Survey MPS 175058
2006 07 21.30789 21 25 20.17 -02 52 24.1 19.0 V 703 – Catalina Sky Survey MPS 175058
2006 07 21.31487 21 25 19.95 -02 52 27.1 18.9 V 703 – Catalina Sky Survey MPS 175058
2006 07 21.32186 21 25 19.70 -02 52 29.2 18.9 V 703 – Catalina Sky Survey MPS 175058
2006 07 26.30586 21 22 32.07 -03 30 12.1 18.5 R 644 – Palomar Mountain/NEAT MPS 175388
2006 07 26.32860 21 22 31.23 -03 30 23.0 18.5 R 644 – Palomar Mountain/NEAT MPS 175388
2006 07 26.34900 21 22 30.49 -03 30 32.9 19.5 R 644 – Palomar Mountain/NEAT MPS 175388
2006 08 14.48639 21 09 59.40 -06 31 12.3 18.3 V E12 – Siding Spring Survey MPS 175885
2006 08 14.49529 21 09 58.96 -06 31 18.2 18.6 V E12 – Siding Spring Survey MPS 175885
2006 08 14.50322 21 09 58.68 -06 31 23.3 18.5 V E12 – Siding Spring Survey MPS 175885
2006 08 14.51111 21 09 58.32 -06 31 27.9 18.4 V E12 – Siding Spring Survey MPS 175885
2006 08 14.51907 21 09 58.03 -06 31 33.0 18.5 V E12 – Siding Spring Survey MPS 175885
